Time,TemperatureF,DewpointF,PressureIn,WindDirection,WindDirectionDegrees,WindSpeedMPH,WindSpeedGustMPH,Humidity,HourlyPrecipIn,Conditions,Clouds,dailyrainin,SolarRadiationWatts/m^2,SoftwareType,DateUTC
2013-02-05 00:00:00,59.1,54.6,30.04,SE,125,0.0,0.0,85,0.00,,FEW035,0.00,74.00,VWS V14.01,2013-02-05 05:00:00,
2013-02-05 00:05:00,58.8,54.6,30.03,SE,125,0.0,0.0,86,0.00,,FEW035,0.00,74.00,VWS V14.01,2013-02-05 05:05:00,
2013-02-05 00:10:00,58.7,54.8,30.03,SE,125,0.0,0.0,87,0.00,,FEW035,0.00,74.00,VWS V14.01,2013-02-05 05:10:00,
2013-02-05 00:15:00,58.6,54.8,30.04,West,275,3.0,5.0,87,0.00,,FEW035,0.00,74.00,VWS V14.01,2013-02-05 05:15:00,
2013-02-05 00:20:00,58.4,54.9,30.04,West,276,0.0,3.0,88,0.00,,FEW035,0.00,74.00,VWS V14.01,2013-02-05 05:20:00,
2013-02-05 00:25:00,58.2,54.7,30.04,West,276,1.0,3.0,88,0.00,,FEW035,0.00,74.00,VWS V14.01,2013-02-05 05:25:00,
2013-02-05 00:30:00,58.2,54.7,30.03,West,276,0.0,2.0,88,0.00,,FEW035,0.00,74.00,VWS V14.01,2013-02-05 05:30:00,
2013-02-05 00:35:00,58.4,54.9,30.03,West,276,1.0,2.0,88,0.00,,FEW035,0.00,74.00,VWS V14.01,2013-02-05 05:35:00,
2013-02-05 00:40:00,58.5,55.0,30.03,West,276,0.0,1.0,88,0.00,,FEW035,0.00,74.00,VWS V14.01,2013-02-05 05:40:00,
2013-02-05 00:45:00,58.5,55.3,30.03,West,276,0.0,0.0,89,0.00,,FEW035,0.00,74.00,VWS V14.01,2013-02-05 05:45:00,
2013-02-05 00:50:00,58.3,55.1,30.03,West,276,0.0,0.0,89,0.00,,FEW035,0.00,74.00,VWS V14.01,2013-02-05 05:50:00,
2013-02-05 00:55:00,58.4,55.5,30.03,West,277,0.0,0.0,90,0.00,,FEW035,0.00,74.00,VWS V14.01,2013-02-05 05:55:00,
2013-02-05 01:00:00,58.5,55.6,30.03,West,276,0.0,0.0,90,0.00,,FEW035,0.00,74.00,VWS V14.01,2013-02-05 06:00:00,
2013-02-05 01:05:00,58.4,55.5,30.03,West,276,0.0,0.0,90,0.00,,FEW035,0.00,74.00,VWS V14.01,2013-02-05 06:05:00,
2013-02-05 01:10:00,58.3,55.4,30.03,West,277,0.0,1.0,90,0.00,,FEW035,0.00,74.00,VWS V14.01,2013-02-05 06:10:00,
2013-02-05 01:15:00,58.1,55.2,30.03,West,276,0.0,1.0,90,0.00,,FEW035,0.00,74.00,VWS V14.01,2013-02-05 06:15:00,
2013-02-05 01:20:00,58.0,55.4,30.03,West,277,0.0,0.0,91,0.00,,FEW035,0.00,74.00,VWS V14.01,2013-02-05 06:20:00,
2013-02-05 01:25:00,58.1,55.5,30.03,West,276,0.0,0.0,91,0.00,,FEW035,0.00,74.00,VWS V14.01,2013-02-05 06:25:00,
2013-02-05 01:30:00,58.1,55.5,30.03,West,276,0.0,0.0,91,0.00,,FEW035,0.00,74.00,VWS V14.01,2013-02-05 06:30:00,
2013-02-05 01:35:00,57.9,55.3,30.02,West,276,0.0,0.0,91,0.00,,FEW035,0.00,74.00,VWS V14.01,2013-02-05 06:35:00,
2013-02-05 01:40:00,57.7,55.1,30.03,West,276,0.0,0.0,91,0.00,,FEW035,0.00,74.00,VWS V14.01,2013-02-05 06:40:00,
2013-02-05 01:45:00,57.7,55.1,30.03,West,276,2.0,2.0,91,0.00,,FEW035,0.00,74.00,VWS V14.01,2013-02-05 06:45:00,
2013-02-05 01:50:00,57.6,55.0,30.03,West,277,0.0,1.0,91,0.00,,FEW035,0.00,74.00,VWS V14.01,2013-02-05 06:50:00,
2013-02-05 01:55:00,57.7,55.4,30.03,West,276,0.0,0.0,92,0.00,,FEW035,0.00,74.00,VWS V14.01,2013-02-05 06:55:00,
2013-02-05 02:00:00,57.3,55.0,30.02,West,276,0.0,0.0,92,0.00,,FEW035,0.00,74.00,VWS V14.01,2013-02-05 07:00:00,
2013-02-05 02:05:00,57.5,55.2,30.02,West,277,0.0,1.0,92,0.00,,FEW035,0.00,74.00,VWS V14.01,2013-02-05 07:05:00,
2013-02-05 02:10:00,57.4,55.1,30.02,West,276,0.0,0.0,92,0.00,,FEW035,0.00,74.00,VWS V14.01,2013-02-05 07:10:00,
2013-02-05 02:15:00,57.5,55.2,30.02,West,276,0.0,0.0,92,0.00,,FEW035,0.00,74.00,VWS V14.01,2013-02-05 07:15:00,
2013-02-05 02:20:00,57.4,55.1,30.02,West,277,0.0,0.0,92,0.00,,FEW035,0.00,74.00,VWS V14.01,2013-02-05 07:20:00,
2013-02-05 02:25:00,57.3,55.0,30.02,West,276,0.0,0.0,92,0.00,,FEW035,0.00,74.00,VWS V14.01,2013-02-05 07:25:00,
2013-02-05 02:30:00,57.3,55.3,30.02,West,276,0.0,0.0,93,0.00,,FEW035,0.00,74.00,VWS V14.01,2013-02-05 07:30:00,
2013-02-05 02:35:00,57.6,55.6,30.01,West,276,0.0,0.0,93,0.00,,FEW035,0.00,74.00,VWS V14.01,2013-02-05 07:35:00,
2013-02-05 02:40:00,57.6,55.6,30.01,West,276,0.0,0.0,93,0.00,,FEW035,0.00,74.00,VWS V14.01,2013-02-05 07:40:00,
2013-02-05 02:45:00,57.4,55.4,30.01,West,277,0.0,0.0,93,0.00,,FEW035,0.00,74.00,VWS V14.01,2013-02-05 07:45:00,
2013-02-05 02:50:00,57.3,55.3,30.01,West,277,0.0,0.0,93,0.00,,FEW035,0.00,74.00,VWS V14.01,2013-02-05 07:50:00,
2013-02-05 02:55:00,57.4,55.4,30.01,West,276,0.0,0.0,93,0.00,,FEW035,0.00,74.00,VWS V14.01,2013-02-05 07:55:00,
2013-02-05 03:00:00,57.3,55.3,30.01,West,277,0.0,0.0,93,0.00,,FEW035,0.00,74.00,VWS V14.01,2013-02-05 08:00:00,
2013-02-05 03:05:00,57.5,55.5,30.01,West,276,0.0,0.0,93,0.00,,FEW035,0.00,74.00,VWS V14.01,2013-02-05 08:05:00,
2013-02-05 03:10:00,57.3,55.3,30.01,West,276,0.0,0.0,93,0.00,,FEW035,0.00,74.00,VWS V14.01,2013-02-05 08:10:00,
2013-02-05 03:15:00,57.4,55.4,30.01,West,277,0.0,0.0,93,0.00,,FEW035,0.00,74.00,VWS V14.01,2013-02-05 08:15:00,
2013-02-05 03:20:00,57.3,55.3,30.01,West,276,0.0,0.0,93,0.00,,FEW035,0.00,74.00,VWS V14.01,2013-02-05 08:20:00,
2013-02-05 03:25:00,57.3,55.3,30.00,West,276,0.0,0.0,93,0.00,,FEW035,0.00,74.00,VWS V14.01,2013-02-05 08:25:00,
2013-02-05 03:30:00,57.5,55.5,30.00,West,276,0.0,0.0,93,0.00,,FEW035,0.00,74.00,VWS V14.01,2013-02-05 08:30:00,
2013-02-05 03:35:00,57.2,55.2,30.00,West,276,0.0,0.0,93,0.00,,FEW035,0.00,74.00,VWS V14.01,2013-02-05 08:35:00,
2013-02-05 03:40:00,56.9,54.9,30.00,West,276,0.0,1.0,93,0.00,,FEW035,0.00,74.00,VWS V14.01,2013-02-05 08:40:00,
2013-02-05 03:45:00,56.7,54.7,30.01,West,277,0.0,0.0,93,0.00,,FEW035,0.00,74.00,VWS V14.01,2013-02-05 08:45:00,
2013-02-05 03:50:00,56.7,54.7,30.01,West,276,0.0,0.0,93,0.00,,FEW035,0.00,74.00,VWS V14.01,2013-02-05 08:50:00,
2013-02-05 03:55:00,56.7,54.7,30.01,West,276,0.0,0.0,93,0.00,,FEW035,0.00,74.00,VWS V14.01,2013-02-05 08:55:00,
2013-02-05 04:00:00,56.6,54.6,30.01,West,277,0.0,0.0,93,0.00,,FEW035,0.00,74.00,VWS V14.01,2013-02-05 09:00:00,
2013-02-05 04:05:00,56.8,54.8,30.01,West,276,0.0,0.0,93,0.00,,FEW035,0.00,74.00,VWS V14.01,2013-02-05 09:05:00,
2013-02-05 04:10:00,57.2,55.2,30.01,West,277,0.0,0.0,93,0.00,,FEW035,0.00,74.00,VWS V14.01,2013-02-05 09:10:00,
2013-02-05 04:15:00,56.4,54.4,30.00,West,276,0.0,0.0,93,0.00,,FEW035,0.00,74.00,VWS V14.01,2013-02-05 09:15:00,
2013-02-05 04:20:00,56.6,54.6,30.00,West,276,0.0,0.0,93,0.00,,FEW035,0.00,74.00,VWS V14.01,2013-02-05 09:20:00,
2013-02-05 04:25:00,56.7,54.7,30.00,West,276,0.0,0.0,93,0.00,,FEW035,0.00,74.00,VWS V14.01,2013-02-05 09:25:00,
2013-02-05 04:30:00,56.6,54.6,30.00,West,277,2.0,2.0,93,0.00,,FEW035,0.00,74.00,VWS V14.01,2013-02-05 09:30:00,
2013-02-05 04:35:00,56.7,54.7,30.00,NW,317,0.0,2.0,93,0.00,,FEW035,0.00,74.00,VWS V14.01,2013-02-05 09:35:00,
2013-02-05 04:40:00,56.7,54.7,30.00,NW,317,0.0,1.0,93,0.00,,FEW035,0.00,74.00,VWS V14.01,2013-02-05 09:40:00,
2013-02-05 04:45:00,56.8,54.8,30.00,NW,317,0.0,0.0,93,0.00,,FEW035,0.00,74.00,VWS V14.01,2013-02-05 09:45:00,
2013-02-05 04:50:00,56.9,55.2,30.00,NW,317,0.0,0.0,94,0.00,,FEW035,0.00,74.00,VWS V14.01,2013-02-05 09:50:00,
2013-02-05 04:55:00,56.8,55.1,30.00,NW,317,0.0,0.0,94,0.00,,FEW035,0.00,74.00,VWS V14.01,2013-02-05 09:55:00,
2013-02-05 05:00:00,56.6,54.9,30.00,NW,317,0.0,0.0,94,0.00,,FEW035,0.00,74.00,VWS V14.01,2013-02-05 10:00:00,
2013-02-05 05:05:00,56.5,54.5,30.00,NW,317,0.0,0.0,93,0.00,,FEW035,0.00,74.00,VWS V14.01,2013-02-05 10:05:00,
2013-02-05 05:10:00,56.6,54.6,30.00,NW,317,0.0,0.0,93,0.00,,FEW035,0.00,74.00,VWS V14.01,2013-02-05 10:10:00,
2013-02-05 05:15:00,56.6,54.6,30.00,NW,317,0.0,0.0,93,0.00,,FEW035,0.00,74.00,VWS V14.01,2013-02-05 10:15:00,
2013-02-05 05:20:00,56.6,54.6,30.00,NW,317,0.0,0.0,93,0.00,,FEW035,0.00,74.00,VWS V14.01,2013-02-05 10:20:00,
2013-02-05 05:25:00,56.8,54.5,30.01,NW,317,0.0,0.0,92,0.00,,FEW035,0.00,74.00,VWS V14.01,2013-02-05 10:25:00,
2013-02-05 05:30:00,56.4,54.1,30.01,NW,317,0.0,0.0,92,0.00,,FEW035,0.00,74.00,VWS V14.01,2013-02-05 10:30:00,
2013-02-05 05:35:00,55.9,53.6,30.01,NW,317,0.0,0.0,92,0.00,,FEW035,0.00,74.00,VWS V14.01,2013-02-05 10:35:00,
2013-02-05 05:40:00,56.1,53.8,30.01,NW,317,0.0,0.0,92,0.00,,FEW035,0.00,74.00,VWS V14.01,2013-02-05 10:40:00,
2013-02-05 05:45:00,55.7,53.4,30.01,NW,317,0.0,0.0,92,0.00,,FEW035,0.00,74.00,VWS V14.01,2013-02-05 10:45:00,
2013-02-05 05:50:00,55.7,53.4,30.02,NW,317,0.0,0.0,92,0.00,,FEW035,0.00,74.00,VWS V14.01,2013-02-05 10:50:00,
2013-02-05 05:55:00,55.4,53.1,30.01,NW,317,0.0,0.0,92,0.00,,FEW035,0.00,74.00,VWS V14.01,2013-02-05 10:55:00,
2013-02-05 06:00:00,55.7,53.4,30.01,NW,317,0.0,0.0,92,0.00,,FEW035,0.00,74.00,VWS V14.01,2013-02-05 11:00:00,
2013-02-05 06:05:00,55.9,53.9,30.02,NW,317,0.0,0.0,93,0.00,,FEW035,0.00,74.00,VWS V14.01,2013-02-05 11:05:00,
2013-02-05 06:10:00,55.5,53.5,30.02,NW,317,0.0,0.0,93,0.00,,FEW035,0.00,74.00,VWS V14.01,2013-02-05 11:10:00,
2013-02-05 06:15:00,55.6,53.6,30.02,NW,317,0.0,0.0,93,0.00,,FEW035,0.00,74.00,VWS V14.01,2013-02-05 11:15:00,
2013-02-05 06:20:00,55.4,53.4,30.02,NW,317,0.0,0.0,93,0.00,,FEW035,0.00,74.00,VWS V14.01,2013-02-05 11:20:00,
2013-02-05 06:25:00,55.1,53.1,30.02,NW,317,0.0,0.0,93,0.00,,FEW035,0.00,74.00,VWS V14.01,2013-02-05 11:25:00,
2013-02-05 06:29:00,55.2,53.2,30.02,NW,317,0.0,0.0,93,0.00,,FEW035,0.00,74.00,VWS V14.01,2013-02-05 11:29:00,
2013-02-05 06:34:00,55.0,53.0,30.02,NW,317,0.0,0.0,93,0.00,,FEW035,0.00,74.00,VWS V14.01,2013-02-05 11:34:00,
2013-02-05 06:39:00,55.3,53.3,30.02,NW,317,0.0,0.0,93,0.00,,FEW035,0.00,74.00,VWS V14.01,2013-02-05 11:39:00,
2013-02-05 06:44:00,55.4,53.4,30.03,NW,317,0.0,0.0,93,0.00,,FEW035,0.00,74.00,VWS V14.01,2013-02-05 11:44:00,
2013-02-05 06:49:00,55.5,53.5,30.03,NW,317,0.0,0.0,93,0.00,,FEW035,0.00,74.00,VWS V14.01,2013-02-05 11:49:00,
2013-02-05 06:54:00,55.7,53.7,30.02,NW,317,0.0,0.0,93,0.00,,FEW035,0.00,76.00,VWS V14.01,2013-02-05 11:54:00,
2013-02-05 06:59:00,55.8,53.8,30.03,NW,317,0.0,0.0,93,0.00,,FEW035,0.00,76.00,VWS V14.01,2013-02-05 11:59:00,
2013-02-05 07:04:00,56.0,54.3,30.03,NW,317,0.0,0.0,94,0.00,,FEW035,0.00,77.00,VWS V14.01,2013-02-05 12:04:00,
2013-02-05 07:09:00,55.9,54.2,30.03,NW,317,0.0,0.0,94,0.00,,FEW035,0.00,79.00,VWS V14.01,2013-02-05 12:09:00,
2013-02-05 07:14:00,56.1,54.4,30.03,NW,317,0.0,0.0,94,0.00,,FEW035,0.00,84.00,VWS V14.01,2013-02-05 12:14:00,
2013-02-05 07:19:00,56.2,54.5,30.03,NW,317,0.0,0.0,94,0.00,,FEW035,0.00,86.00,VWS V14.01,2013-02-05 12:19:00,
2013-02-05 07:24:00,56.4,54.7,30.03,NW,317,0.0,0.0,94,0.00,,FEW035,0.00,90.00,VWS V14.01,2013-02-05 12:24:00,
2013-02-05 07:29:00,56.5,54.8,30.03,NW,317,0.0,0.0,94,0.00,,FEW035,0.00,105.00,VWS V14.01,2013-02-05 12:29:00,
2013-02-05 07:34:00,56.6,54.9,30.03,NW,317,0.0,0.0,94,0.00,,FEW035,0.00,118.00,VWS V14.01,2013-02-05 12:34:00,
2013-02-05 07:39:00,56.9,55.2,30.03,NW,317,0.0,0.0,94,0.00,,FEW035,0.00,130.00,VWS V14.01,2013-02-05 12:39:00,
2013-02-05 07:44:00,56.7,54.7,30.03,NW,317,0.0,0.0,93,0.00,,FEW035,0.00,146.00,VWS V14.01,2013-02-05 12:44:00,
2013-02-05 07:49:00,57.3,55.0,30.03,NW,317,0.0,0.0,92,0.00,,FEW035,0.00,162.00,VWS V14.01,2013-02-05 12:49:00,
2013-02-05 07:54:00,58.3,55.1,30.03,NW,317,0.0,0.0,89,0.00,,FEW035,0.00,176.00,VWS V14.01,2013-02-05 12:54:00,
2013-02-05 07:59:00,59.1,55.2,30.04,NW,318,0.0,1.0,87,0.00,,FEW035,0.00,193.00,VWS V14.01,2013-02-05 12:59:00,
2013-02-05 08:04:00,59.4,55.2,30.04,NW,322,0.0,1.0,86,0.00,,FEW035,0.00,213.00,VWS V14.01,2013-02-05 13:04:00,
2013-02-05 08:09:00,60.0,55.5,30.04,NW,322,0.0,1.0,85,0.00,,FEW035,0.00,230.00,VWS V14.01,2013-02-05 13:09:00,
2013-02-05 08:14:00,60.3,55.5,30.04,NW,322,3.0,3.0,84,0.00,,FEW035,0.00,250.00,VWS V14.01,2013-02-05 13:14:00,
2013-02-05 08:19:00,60.7,55.5,30.04,NW,323,1.0,2.0,83,0.00,,FEW035,0.00,262.00,VWS V14.01,2013-02-05 13:19:00,
2013-02-05 08:24:00,61.2,56.0,30.04,NW,323,0.0,1.0,83,0.00,,CLR,0.00,278.00,VWS V14.01,2013-02-05 13:24:00,
2013-02-05 08:29:00,61.6,56.1,30.04,NW,323,0.0,0.0,82,0.00,,CLR,0.00,292.00,VWS V14.01,2013-02-05 13:29:00,
2013-02-05 08:34:00,62.0,56.5,30.04,NW,323,0.0,1.0,82,0.00,,CLR,0.00,308.00,VWS V14.01,2013-02-05 13:34:00,
2013-02-05 08:39:00,62.5,56.6,30.04,NW,323,0.0,0.0,81,0.00,,CLR,0.00,323.00,VWS V14.01,2013-02-05 13:39:00,
2013-02-05 08:44:00,62.9,56.3,30.05,NW,323,0.0,1.0,79,0.00,,CLR,0.00,339.00,VWS V14.01,2013-02-05 13:44:00,
2013-02-05 08:49:00,63.7,57.1,30.05,NW,323,1.0,1.0,79,0.00,,CLR,0.00,355.00,VWS V14.01,2013-02-05 13:49:00,
2013-02-05 08:54:00,64.3,57.3,30.05,NW,323,0.0,0.0,78,0.00,,CLR,0.00,371.00,VWS V14.01,2013-02-05 13:54:00,
2013-02-05 08:59:00,64.8,57.4,30.05,NW,323,0.0,1.0,77,0.00,,CLR,0.00,392.00,VWS V14.01,2013-02-05 13:59:00,
2013-02-05 09:04:00,65.1,57.4,30.05,NW,323,0.0,0.0,76,0.00,,CLR,0.00,410.00,VWS V14.01,2013-02-05 14:04:00,
2013-02-05 09:09:00,65.6,57.1,30.05,NW,323,0.0,0.0,74,0.00,,CLR,0.00,425.00,VWS V14.01,2013-02-05 14:09:00,
2013-02-05 09:14:00,66.1,57.6,30.05,NW,323,0.0,0.0,74,0.00,,CLR,0.00,439.00,VWS V14.01,2013-02-05 14:14:00,
2013-02-05 09:19:00,67.1,57.8,30.05,NW,323,0.0,0.0,72,0.00,,CLR,0.00,454.00,VWS V14.01,2013-02-05 14:19:00,
2013-02-05 09:24:00,68.4,58.2,30.05,NW,321,0.0,2.0,70,0.00,,CLR,0.00,469.00,VWS V14.01,2013-02-05 14:24:00,
2013-02-05 09:29:00,69.5,58.5,30.05,NW,320,0.0,1.0,68,0.00,,CLR,0.00,485.00,VWS V14.01,2013-02-05 14:29:00,
2013-02-05 09:34:00,69.9,58.0,30.05,SSE,148,1.0,4.0,66,0.00,,CLR,0.00,497.00,VWS V14.01,2013-02-05 14:34:00,
2013-02-05 09:39:00,70.7,58.8,30.05,SE,146,0.0,2.0,66,0.00,,CLR,0.00,513.00,VWS V14.01,2013-02-05 14:39:00,
2013-02-05 09:44:00,71.2,58.4,30.05,SE,146,3.0,4.0,64,0.00,,CLR,0.00,529.00,VWS V14.01,2013-02-05 14:44:00,
2013-02-05 09:49:00,71.3,58.5,30.05,SSE,148,1.0,4.0,64,0.00,,CLR,0.00,543.00,VWS V14.01,2013-02-05 14:49:00,
2013-02-05 09:54:00,72.2,58.9,30.05,SE,128,0.0,2.0,63,0.00,,CLR,0.00,557.00,VWS V14.01,2013-02-05 14:54:00,
2013-02-05 09:59:00,72.5,58.3,30.05,SSE,148,0.0,7.0,61,0.00,,CLR,0.00,571.00,VWS V14.01,2013-02-05 14:59:00,
2013-02-05 10:04:00,72.6,58.4,30.05,SE,130,4.0,5.0,61,0.00,,CLR,0.00,584.00,VWS V14.01,2013-02-05 15:04:00,
2013-02-05 10:09:00,72.2,58.0,30.05,SE,132,7.0,9.0,61,0.00,,CLR,0.00,596.00,VWS V14.01,2013-02-05 15:09:00,
2013-02-05 10:14:00,72.5,58.3,30.05,SSE,148,1.0,10.0,61,0.00,,CLR,0.00,605.00,VWS V14.01,2013-02-05 15:14:00,
2013-02-05 10:19:00,72.8,58.1,30.05,SE,134,0.0,9.0,60,0.00,,CLR,0.00,617.00,VWS V14.01,2013-02-05 15:19:00,
2013-02-05 10:24:00,73.2,59.0,30.05,SE,145,1.0,6.0,61,0.00,,CLR,0.00,628.00,VWS V14.01,2013-02-05 15:24:00,
2013-02-05 10:29:00,73.6,58.9,30.05,SE,133,0.0,6.0,60,0.00,,CLR,0.00,642.00,VWS V14.01,2013-02-05 15:29:00,
2013-02-05 10:34:00,73.9,58.7,30.05,SE,144,4.0,9.0,59,0.00,,CLR,0.00,647.00,VWS V14.01,2013-02-05 15:34:00,
2013-02-05 10:39:00,74.0,58.3,30.05,ESE,102,3.0,4.0,58,0.00,,CLR,0.00,657.00,VWS V14.01,2013-02-05 15:39:00,
2013-02-05 10:44:00,73.5,58.8,30.05,ESE,115,1.0,4.0,60,0.00,,CLR,0.00,671.00,VWS V14.01,2013-02-05 15:44:00,
2013-02-05 10:49:00,74.4,58.7,30.05,South,182,2.0,6.0,58,0.00,,CLR,0.00,677.00,VWS V14.01,2013-02-05 15:49:00,
2013-02-05 10:54:00,74.9,58.7,30.05,SE,126,2.0,4.0,57,0.00,,CLR,0.00,687.00,VWS V14.01,2013-02-05 15:54:00,
2013-02-05 10:59:00,74.6,57.9,30.05,SE,131,2.0,8.0,56,0.00,,CLR,0.00,698.00,VWS V14.01,2013-02-05 15:59:00,
2013-02-05 11:04:00,74.6,58.4,30.05,ESE,103,5.0,5.0,57,0.00,,CLR,0.00,708.00,VWS V14.01,2013-02-05 16:04:00,
2013-02-05 11:09:00,75.2,58.4,30.05,SE,146,4.0,7.0,56,0.00,,FEW035,0.00,714.00,VWS V14.01,2013-02-05 16:09:00,
2013-02-05 11:14:00,75.7,57.9,30.05,East,93,5.0,5.0,54,0.00,,FEW035,0.00,724.00,VWS V14.01,2013-02-05 16:14:00,
2013-02-05 11:19:00,75.9,58.1,30.05,South,170,4.0,6.0,54,0.00,,FEW035,0.00,722.00,VWS V14.01,2013-02-05 16:19:00,
2013-02-05 11:24:00,76.5,58.6,30.04,SE,143,2.0,5.0,54,0.00,,FEW035,0.00,737.00,VWS V14.01,2013-02-05 16:24:00,
2013-02-05 11:29:00,76.1,58.8,30.04,SSE,150,2.0,6.0,55,0.00,,FEW035,0.00,742.00,VWS V14.01,2013-02-05 16:29:00,
2013-02-05 11:34:00,75.5,57.2,30.04,SE,131,2.0,6.0,53,0.00,,FEW035,0.00,747.00,VWS V14.01,2013-02-05 16:34:00,
2013-02-05 11:39:00,76.2,59.4,30.04,SE,142,3.0,4.0,56,0.00,,FEW035,0.00,754.00,VWS V14.01,2013-02-05 16:39:00,
2013-02-05 11:44:00,76.0,58.7,30.03,SE,138,5.0,6.0,55,0.00,,FEW035,0.00,759.00,VWS V14.01,2013-02-05 16:44:00,
2013-02-05 11:49:00,76.5,58.6,30.04,SSE,148,2.0,11.0,54,0.00,,FEW035,0.00,772.00,VWS V14.01,2013-02-05 16:49:00,
2013-02-05 11:54:00,76.4,59.6,30.03,SE,124,2.0,5.0,56,0.00,,FEW035,0.00,777.00,VWS V14.01,2013-02-05 16:54:00,
2013-02-05 11:59:00,77.1,58.7,30.03,South,180,2.0,7.0,53,0.00,,FEW035,0.00,789.00,VWS V14.01,2013-02-05 16:59:00,
2013-02-05 12:04:00,76.9,59.5,30.03,SE,140,0.0,3.0,55,0.00,,FEW035,0.00,786.00,VWS V14.01,2013-02-05 17:04:00,
2013-02-05 12:09:00,77.9,60.5,30.03,ESE,117,4.0,7.0,55,0.00,,FEW035,0.00,800.00,VWS V14.01,2013-02-05 17:09:00,
2013-02-05 12:14:00,76.3,59.0,30.03,East,100,2.0,6.0,55,0.00,,FEW035,0.00,858.00,VWS V14.01,2013-02-05 17:14:00,
2013-02-05 12:19:00,76.6,60.2,30.03,SSE,155,4.0,6.0,57,0.00,,FEW035,0.00,870.00,VWS V14.01,2013-02-05 17:19:00,
2013-02-05 12:24:00,77.0,58.6,30.02,ESE,109,3.0,3.0,53,0.00,,FEW035,0.00,220.00,VWS V14.01,2013-02-05 17:24:00,
2013-02-05 12:29:00,76.2,58.9,30.02,ESE,111,2.0,3.0,55,0.00,,FEW035,0.00,925.00,VWS V14.01,2013-02-05 17:29:00,
2013-02-05 12:34:00,76.8,59.4,30.01,SE,137,1.0,6.0,55,0.00,,FEW035,0.00,325.00,VWS V14.01,2013-02-05 17:34:00,
2013-02-05 12:39:00,77.3,58.8,30.01,SE,138,0.0,1.0,53,0.00,,FEW035,0.00,299.00,VWS V14.01,2013-02-05 17:39:00,
2013-02-05 12:44:00,77.5,59.6,30.01,SE,142,5.0,5.0,54,0.00,,FEW035,0.00,939.00,VWS V14.01,2013-02-05 17:44:00,
2013-02-05 12:49:00,79.3,59.1,30.01,SSE,168,1.0,5.0,50,0.00,,FEW035,0.00,893.00,VWS V14.01,2013-02-05 17:49:00,
2013-02-05 12:54:00,76.5,59.2,30.01,ENE,59,2.0,5.0,55,0.00,,FEW035,0.00,884.00,VWS V14.01,2013-02-05 17:54:00,
2013-02-05 12:59:00,76.2,59.9,30.01,ESE,109,1.0,6.0,57,0.00,,FEW035,0.00,290.00,VWS V14.01,2013-02-05 17:59:00,
2013-02-05 13:04:00,76.1,60.3,30.00,East,84,2.0,6.0,58,0.00,,FEW035,0.00,861.00,VWS V14.01,2013-02-05 18:04:00,
2013-02-05 13:09:00,75.7,59.4,30.00,ENE,59,2.0,4.0,57,0.00,,FEW035,0.00,817.00,VWS V14.01,2013-02-05 18:09:00,
2013-02-05 13:14:00,76.9,61.0,30.00,NNE,30,3.0,4.0,58,0.00,,FEW035,0.00,860.00,VWS V14.01,2013-02-05 18:14:00,
2013-02-05 13:19:00,77.3,59.9,30.00,South,175,2.0,3.0,55,0.00,,FEW035,0.00,872.00,VWS V14.01,2013-02-05 18:19:00,
2013-02-05 13:24:00,78.9,56.4,30.00,SSW,206,0.0,5.0,46,0.00,,SCT035,0.00,905.00,VWS V14.01,2013-02-05 18:24:00,
2013-02-05 13:29:00,79.8,57.2,29.99,SSW,211,2.0,7.0,46,0.00,,SCT035,0.00,865.00,VWS V14.01,2013-02-05 18:29:00,
2013-02-05 13:34:00,79.8,55.3,30.00,SSW,213,5.0,9.0,43,0.00,,SCT035,0.00,385.00,VWS V14.01,2013-02-05 18:34:00,
2013-02-05 13:39:00,79.1,55.3,29.99,WNW,288,4.0,7.0,44,0.00,,SCT035,0.00,383.00,VWS V14.01,2013-02-05 18:39:00,
2013-02-05 13:44:00,78.4,55.3,29.99,WNW,291,4.0,5.0,45,0.00,,SCT035,0.00,434.00,VWS V14.01,2013-02-05 18:44:00,
2013-02-05 13:49:00,78.4,55.9,29.99,WNW,288,4.0,7.0,46,0.00,,SCT035,0.00,473.00,VWS V14.01,2013-02-05 18:49:00,
2013-02-05 13:54:00,78.5,55.4,29.99,West,259,0.0,10.0,45,0.00,,SCT035,0.00,287.00,VWS V14.01,2013-02-05 18:54:00,
2013-02-05 13:59:00,78.5,54.8,29.99,WSW,244,0.0,4.0,44,0.00,,SCT035,0.00,385.00,VWS V14.01,2013-02-05 18:59:00,
2013-02-05 14:04:00,78.3,55.2,29.99,SW,225,3.0,3.0,45,0.00,,SCT035,0.00,526.00,VWS V14.01,2013-02-05 19:04:00,
2013-02-05 14:09:00,79.5,56.3,29.99,West,265,2.0,5.0,45,0.00,,SCT035,0.00,422.00,VWS V14.01,2013-02-05 19:09:00,
2013-02-05 14:14:00,79.6,55.8,29.99,West,274,4.0,6.0,44,0.00,,SCT035,0.00,863.00,VWS V14.01,2013-02-05 19:14:00,
2013-02-05 14:19:00,78.4,54.7,29.99,West,267,3.0,6.0,44,0.00,,SCT035,0.00,339.00,VWS V14.01,2013-02-05 19:19:00,
2013-02-05 14:24:00,78.6,55.5,29.99,SW,230,1.0,1.0,45,0.00,,SCT035,0.00,308.00,VWS V14.01,2013-02-05 19:24:00,
2013-02-05 14:29:00,77.9,61.5,29.99,SE,142,2.0,7.0,57,0.00,,SCT035,0.00,292.00,VWS V14.01,2013-02-05 19:29:00,
2013-02-05 14:34:00,76.9,61.5,29.99,ESE,122,3.0,6.0,59,0.00,,SCT035,0.00,309.00,VWS V14.01,2013-02-05 19:34:00,
2013-02-05 14:39:00,76.5,62.1,29.99,SE,145,9.0,9.0,61,0.00,,SCT035,0.00,457.00,VWS V14.01,2013-02-05 19:39:00,
2013-02-05 14:44:00,76.5,63.0,29.98,SE,138,5.0,7.0,63,0.00,,SCT035,0.00,710.00,VWS V14.01,2013-02-05 19:44:00,
2013-02-05 14:49:00,76.9,62.9,29.98,SE,138,1.0,8.0,62,0.00,,SCT035,0.00,752.00,VWS V14.01,2013-02-05 19:49:00,
2013-02-05 14:54:00,77.0,63.0,29.98,SE,131,6.0,11.0,62,0.00,,SCT035,0.00,779.00,VWS V14.01,2013-02-05 19:54:00,
2013-02-05 14:59:00,76.7,62.7,29.98,SE,130,7.0,10.0,62,0.00,,SCT035,0.00,705.00,VWS V14.01,2013-02-05 19:59:00,
2013-02-05 15:04:00,76.4,62.4,29.98,SSE,165,5.0,9.0,62,0.00,,SCT035,0.00,693.00,VWS V14.01,2013-02-05 20:04:00,
2013-02-05 15:09:00,77.5,63.0,29.98,SSE,147,2.0,2.0,61,0.00,,SCT035,0.00,647.00,VWS V14.01,2013-02-05 20:09:00,
2013-02-05 15:14:00,77.6,62.6,29.98,SE,144,4.0,5.0,60,0.00,,SCT035,0.00,589.00,VWS V14.01,2013-02-05 20:14:00,
2013-02-05 15:19:00,77.3,62.3,29.98,South,184,4.0,6.0,60,0.00,,SCT035,0.00,225.00,VWS V14.01,2013-02-05 20:19:00,
2013-02-05 15:24:00,76.8,61.9,29.98,SE,144,3.0,7.0,60,0.00,,SCT035,0.00,244.00,VWS V14.01,2013-02-05 20:24:00,
2013-02-05 15:29:00,76.7,62.2,29.98,ESE,114,3.0,8.0,61,0.00,,SCT035,0.00,244.00,VWS V14.01,2013-02-05 20:29:00,
2013-02-05 15:34:00,76.3,62.3,29.98,SE,133,4.0,10.0,62,0.00,,SCT035,0.00,220.00,VWS V14.01,2013-02-05 20:34:00,
2013-02-05 15:39:00,76.4,62.0,29.98,SE,128,7.0,7.0,61,0.00,,SCT035,0.00,566.00,VWS V14.01,2013-02-05 20:39:00,
2013-02-05 15:44:00,76.1,62.6,29.98,SE,125,6.0,11.0,63,0.00,,SCT035,0.00,178.00,VWS V14.01,2013-02-05 20:44:00,
2013-02-05 15:49:00,76.2,63.1,29.97,ESE,117,9.0,9.0,64,0.00,,SCT035,0.00,178.00,VWS V14.01,2013-02-05 20:49:00,
2013-02-05 15:54:00,75.8,62.3,29.97,SE,139,4.0,9.0,63,0.00,,SCT035,0.00,178.00,VWS V14.01,2013-02-05 20:54:00,
2013-02-05 15:59:00,75.8,62.8,29.97,ESE,104,5.0,11.0,64,0.00,,SCT035,0.00,225.00,VWS V14.01,2013-02-05 20:59:00,
2013-02-05 16:04:00,75.6,62.6,29.97,ESE,115,0.0,5.0,64,0.00,,SCT035,0.00,350.00,VWS V14.01,2013-02-05 21:04:00,
2013-02-05 16:09:00,75.6,62.1,29.97,SSE,157,3.0,9.0,63,0.00,,SCT035,0.00,214.00,VWS V14.01,2013-02-05 21:09:00,
2013-02-05 16:14:00,75.3,62.3,29.97,SE,128,10.0,10.0,64,0.00,,SCT035,0.00,452.00,VWS V14.01,2013-02-05 21:14:00,
2013-02-05 16:19:00,75.2,63.1,29.98,SE,142,9.0,12.0,66,0.00,,SCT035,0.00,178.00,VWS V14.01,2013-02-05 21:19:00,
2013-02-05 16:24:00,75.1,63.4,29.98,SSE,147,2.0,5.0,67,0.00,,SCT035,0.00,169.00,VWS V14.01,2013-02-05 21:24:00,
2013-02-05 16:29:00,74.8,63.1,29.98,SE,128,5.0,9.0,67,0.00,,SCT035,0.00,211.00,VWS V14.01,2013-02-05 21:29:00,
2013-02-05 16:34:00,75.0,62.9,29.98,SSE,150,6.0,11.0,66,0.00,,SCT035,0.00,385.00,VWS V14.01,2013-02-05 21:34:00,
2013-02-05 16:39:00,75.6,63.5,29.98,SSE,162,2.0,7.0,66,0.00,,SCT035,0.00,325.00,VWS V14.01,2013-02-05 21:39:00,
2013-02-05 16:44:00,75.4,63.3,29.97,SSE,160,6.0,9.0,66,0.00,,SCT035,0.00,283.00,VWS V14.01,2013-02-05 21:44:00,
2013-02-05 16:49:00,75.1,63.4,29.98,SE,138,4.0,11.0,67,0.00,,SCT035,0.00,264.00,VWS V14.01,2013-02-05 21:49:00,
2013-02-05 16:54:00,74.8,63.5,29.98,SE,140,6.0,11.0,68,0.00,,SCT035,0.00,244.00,VWS V14.01,2013-02-05 21:54:00,
2013-02-05 16:59:00,74.6,63.8,29.98,SSE,148,3.0,11.0,69,0.00,,SCT035,0.00,220.00,VWS V14.01,2013-02-05 21:59:00,
2013-02-05 17:04:00,74.7,63.9,29.98,SE,146,5.0,13.0,69,0.00,,SCT035,0.00,200.00,VWS V14.01,2013-02-05 22:04:00,
2013-02-05 17:09:00,74.4,64.0,29.98,SE,134,6.0,9.0,70,0.00,,SCT035,0.00,181.00,VWS V14.01,2013-02-05 22:09:00,
2013-02-05 17:14:00,74.3,63.9,29.98,SE,134,3.0,7.0,70,0.00,,SCT035,0.00,141.00,VWS V14.01,2013-02-05 22:14:00,
2013-02-05 17:19:00,74.0,64.0,29.98,SE,138,6.0,13.0,71,0.00,,SCT035,0.00,151.00,VWS V14.01,2013-02-05 22:19:00,
2013-02-05 17:24:00,73.8,63.8,29.97,ESE,121,6.0,10.0,71,0.00,,SCT035,0.00,137.00,VWS V14.01,2013-02-05 22:24:00,
2013-02-05 17:29:00,73.7,63.7,29.97,SE,133,9.0,12.0,71,0.00,,SCT035,0.00,123.00,VWS V14.01,2013-02-05 22:29:00,
2013-02-05 17:34:00,73.6,63.6,29.97,ESE,103,3.0,9.0,71,0.00,,SCT035,0.00,111.00,VWS V14.01,2013-02-05 22:34:00,
2013-02-05 17:39:00,73.5,63.5,29.97,SE,134,3.0,6.0,71,0.00,,SCT035,0.00,104.00,VWS V14.01,2013-02-05 22:39:00,
2013-02-05 17:44:00,73.4,63.4,29.97,SSE,160,2.0,7.0,71,0.00,,SCT035,0.00,95.00,VWS V14.01,2013-02-05 22:44:00,
2013-02-05 17:49:00,73.3,63.3,29.97,SE,136,5.0,9.0,71,0.00,,SCT035,0.00,90.00,VWS V14.01,2013-02-05 22:49:00,
2013-02-05 17:54:00,73.1,62.7,29.97,SE,146,9.0,9.0,70,0.00,,SCT035,0.00,86.00,VWS V14.01,2013-02-05 22:54:00,
2013-02-05 17:59:00,72.9,62.5,29.97,ESE,122,3.0,6.0,70,0.00,,CLR,0.00,81.00,VWS V14.01,2013-02-05 22:59:00,
2013-02-05 18:04:00,72.8,62.5,29.98,SE,124,6.0,9.0,70,0.00,,CLR,0.00,79.00,VWS V14.01,2013-02-05 23:04:00,
2013-02-05 18:09:00,72.6,62.3,29.97,SE,134,4.0,6.0,70,0.00,,CLR,0.00,76.00,VWS V14.01,2013-02-05 23:09:00,
2013-02-05 18:14:00,72.4,62.1,29.97,SE,135,3.0,6.0,70,0.00,,CLR,0.00,76.00,VWS V14.01,2013-02-05 23:14:00,
2013-02-05 18:19:00,72.2,62.3,29.97,SE,129,4.0,4.0,71,0.00,,CLR,0.00,74.00,VWS V14.01,2013-02-05 23:19:00,
2013-02-05 18:24:00,72.0,62.1,29.97,SE,134,2.0,4.0,71,0.00,,CLR,0.00,74.00,VWS V14.01,2013-02-05 23:24:00,
2013-02-05 18:29:00,72.0,62.1,29.98,SE,134,2.0,3.0,71,0.00,,CLR,0.00,74.00,VWS V14.01,2013-02-05 23:29:00,
2013-02-05 18:34:00,71.9,62.4,29.97,SE,133,1.0,1.0,72,0.00,,CLR,0.00,74.00,VWS V14.01,2013-02-05 23:34:00,
2013-02-05 18:39:00,71.7,62.2,29.97,SE,134,0.0,1.0,72,0.00,,CLR,0.00,74.00,VWS V14.01,2013-02-05 23:39:00,
2013-02-05 18:44:00,71.4,61.9,29.98,SE,134,0.0,2.0,72,0.00,,CLR,0.00,74.00,VWS V14.01,2013-02-05 23:44:00,
2013-02-05 18:49:00,71.2,62.1,29.98,SE,134,0.0,2.0,73,0.00,,CLR,0.00,74.00,VWS V14.01,2013-02-05 23:49:00,
2013-02-05 18:54:00,71.0,61.9,29.98,SE,134,0.0,1.0,73,0.00,,CLR,0.00,74.00,VWS V14.01,2013-02-05 23:54:00,
2013-02-05 18:59:00,70.8,62.1,29.98,SE,134,0.0,1.0,74,0.00,,CLR,0.00,74.00,VWS V14.01,2013-02-05 23:59:00,
2013-02-05 19:04:00,70.8,62.1,29.99,SE,133,0.0,1.0,74,0.00,,CLR,0.00,74.00,VWS V14.01,2013-02-06 00:04:00,
2013-02-05 19:10:00,70.7,62.4,29.99,SE,134,0.0,1.0,75,0.00,,CLR,0.00,74.00,VWS V14.01,2013-02-06 00:10:00,
2013-02-05 19:15:00,70.6,62.3,29.99,SE,134,0.0,2.0,75,0.00,,CLR,0.00,74.00,VWS V14.01,2013-02-06 00:15:00,
2013-02-05 19:20:00,70.5,62.2,29.99,SE,134,1.0,1.0,75,0.00,,CLR,0.00,74.00,VWS V14.01,2013-02-06 00:20:00,
2013-02-05 19:25:00,70.4,62.1,29.99,SE,133,3.0,3.0,75,0.00,,CLR,0.00,74.00,VWS V14.01,2013-02-06 00:25:00,
2013-02-05 19:30:00,70.4,62.5,29.99,SE,134,1.0,4.0,76,0.00,,CLR,0.00,74.00,VWS V14.01,2013-02-06 00:30:00,
2013-02-05 19:35:00,70.3,62.4,29.99,SE,133,1.0,3.0,76,0.00,,CLR,0.00,74.00,VWS V14.01,2013-02-06 00:35:00,
2013-02-05 19:40:00,70.3,62.4,29.99,SE,134,2.0,3.0,76,0.00,,CLR,0.00,74.00,VWS V14.01,2013-02-06 00:40:00,
2013-02-05 19:45:00,70.1,62.6,30.00,SE,133,3.0,3.0,77,0.00,,CLR,0.00,74.00,VWS V14.01,2013-02-06 00:45:00,
2013-02-05 19:50:00,70.0,62.5,30.00,SE,133,1.0,3.0,77,0.00,,CLR,0.00,74.00,VWS V14.01,2013-02-06 00:50:00,
2013-02-05 19:55:00,69.9,62.4,30.00,SE,134,0.0,2.0,77,0.00,,CLR,0.00,74.00,VWS V14.01,2013-02-06 00:55:00,
2013-02-05 20:00:00,69.9,62.7,30.00,SE,134,2.0,3.0,78,0.00,,CLR,0.00,74.00,VWS V14.01,2013-02-06 01:00:00,
2013-02-05 20:05:00,69.9,62.7,30.00,SE,135,1.0,3.0,78,0.00,,CLR,0.00,74.00,VWS V14.01,2013-02-06 01:05:00,
2013-02-05 20:10:00,69.9,62.7,30.00,SE,134,0.0,2.0,78,0.00,,CLR,0.00,74.00,VWS V14.01,2013-02-06 01:10:00,
2013-02-05 20:15:00,69.8,62.6,30.00,SE,135,3.0,3.0,78,0.00,,CLR,0.00,74.00,VWS V14.01,2013-02-06 01:15:00,
2013-02-05 20:20:00,69.7,62.5,30.00,SE,135,1.0,3.0,78,0.00,,CLR,0.00,74.00,VWS V14.01,2013-02-06 01:20:00,
2013-02-05 20:25:00,69.6,62.4,30.00,SE,135,1.0,2.0,78,0.00,,CLR,0.00,74.00,VWS V14.01,2013-02-06 01:25:00,
2013-02-05 20:30:00,69.4,62.6,30.00,SE,135,0.0,2.0,79,0.00,,CLR,0.00,74.00,VWS V14.01,2013-02-06 01:30:00,
2013-02-05 20:35:00,69.3,62.5,30.00,SE,135,0.0,2.0,79,0.00,,CLR,0.00,74.00,VWS V14.01,2013-02-06 01:35:00,
2013-02-05 20:40:00,69.1,62.3,30.00,SE,135,0.0,2.0,79,0.00,,CLR,0.00,74.00,VWS V14.01,2013-02-06 01:40:00,
2013-02-05 20:45:00,69.0,62.6,30.00,SE,134,0.0,1.0,80,0.00,,CLR,0.00,74.00,VWS V14.01,2013-02-06 01:45:00,
2013-02-05 20:50:00,68.8,62.4,30.00,SE,135,0.0,1.0,80,0.00,,CLR,0.00,74.00,VWS V14.01,2013-02-06 01:50:00,
2013-02-05 20:55:00,68.6,62.2,30.00,SE,135,0.0,0.0,80,0.00,,CLR,0.00,74.00,VWS V14.01,2013-02-06 01:55:00,
2013-02-05 21:00:00,68.4,62.3,30.00,SE,135,0.0,0.0,81,0.00,,CLR,0.00,74.00,VWS V14.01,2013-02-06 02:00:00,
2013-02-05 21:05:00,68.2,62.2,30.00,SE,135,0.0,0.0,81,0.00,,CLR,0.00,74.00,VWS V14.01,2013-02-06 02:05:00,
2013-02-05 21:10:00,68.0,62.0,30.00,SE,134,0.0,0.0,81,0.00,,CLR,0.00,74.00,VWS V14.01,2013-02-06 02:10:00,
2013-02-05 21:15:00,67.9,62.2,30.00,SE,135,0.0,0.0,82,0.00,,CLR,0.00,74.00,VWS V14.01,2013-02-06 02:15:00,
2013-02-05 21:20:00,67.8,62.1,30.00,SE,135,0.0,0.0,82,0.00,,CLR,0.00,74.00,VWS V14.01,2013-02-06 02:20:00,
2013-02-05 21:25:00,67.6,61.9,30.00,SE,135,0.0,0.0,82,0.00,,CLR,0.00,74.00,VWS V14.01,2013-02-06 02:25:00,
2013-02-05 21:30:00,67.7,62.0,30.00,SE,135,0.0,0.0,82,0.00,,CLR,0.00,74.00,VWS V14.01,2013-02-06 02:30:00,
2013-02-05 21:35:00,67.6,61.9,30.01,SE,135,0.0,0.0,82,0.00,,CLR,0.00,74.00,VWS V14.01,2013-02-06 02:35:00,
2013-02-05 21:40:00,67.5,62.2,30.01,SE,135,0.0,0.0,83,0.00,,CLR,0.00,74.00,VWS V14.01,2013-02-06 02:40:00,
2013-02-05 21:45:00,67.5,62.2,30.01,SE,135,0.0,0.0,83,0.00,,CLR,0.00,74.00,VWS V14.01,2013-02-06 02:45:00,
2013-02-05 21:50:00,67.4,62.1,30.01,SE,135,0.0,0.0,83,0.00,,CLR,0.00,74.00,VWS V14.01,2013-02-06 02:50:00,
2013-02-05 21:55:00,67.2,61.9,30.01,SE,135,0.0,0.0,83,0.00,,CLR,0.00,74.00,VWS V14.01,2013-02-06 02:55:00,
2013-02-05 22:00:00,67.0,61.7,30.01,SE,135,0.0,0.0,83,0.00,,CLR,0.00,74.00,VWS V14.01,2013-02-06 03:00:00,
2013-02-05 22:05:00,66.9,61.9,30.01,SE,135,0.0,0.0,84,0.00,,CLR,0.00,74.00,VWS V14.01,2013-02-06 03:05:00,
2013-02-05 22:10:00,66.7,61.7,30.02,SE,135,0.0,0.0,84,0.00,,CLR,0.00,74.00,VWS V14.01,2013-02-06 03:10:00,
2013-02-05 22:15:00,66.6,62.0,30.02,SE,135,0.0,0.0,85,0.00,,CLR,0.00,74.00,VWS V14.01,2013-02-06 03:15:00,
2013-02-05 22:20:00,66.5,61.9,30.02,SE,135,0.0,0.0,85,0.00,,CLR,0.00,74.00,VWS V14.01,2013-02-06 03:20:00,
2013-02-05 22:25:00,66.5,61.9,30.02,SE,135,0.0,0.0,85,0.00,,CLR,0.00,74.00,VWS V14.01,2013-02-06 03:25:00,
2013-02-05 22:30:00,66.5,61.9,30.02,SE,135,0.0,0.0,85,0.00,,CLR,0.00,74.00,VWS V14.01,2013-02-06 03:30:00,
2013-02-05 22:35:00,66.4,61.8,30.02,SE,135,0.0,0.0,85,0.00,,CLR,0.00,74.00,VWS V14.01,2013-02-06 03:35:00,
2013-02-05 22:40:00,66.3,62.0,30.02,SE,135,0.0,0.0,86,0.00,,CLR,0.00,74.00,VWS V14.01,2013-02-06 03:40:00,
2013-02-05 22:45:00,66.2,61.9,30.02,SE,135,0.0,0.0,86,0.00,,CLR,0.00,74.00,VWS V14.01,2013-02-06 03:45:00,
2013-02-05 22:50:00,66.1,61.8,30.02,SE,135,0.0,0.0,86,0.00,,CLR,0.00,74.00,VWS V14.01,2013-02-06 03:50:00,
2013-02-05 22:55:00,66.0,62.0,30.02,SE,135,0.0,0.0,87,0.00,,CLR,0.00,74.00,VWS V14.01,2013-02-06 03:55:00,
2013-02-05 23:00:00,65.7,61.7,30.03,SE,135,0.0,0.0,87,0.00,,CLR,0.00,74.00,VWS V14.01,2013-02-06 04:00:00,
2013-02-05 23:05:00,65.5,61.5,30.03,SE,135,0.0,0.0,87,0.00,,CLR,0.00,74.00,VWS V14.01,2013-02-06 04:05:00,
2013-02-05 23:10:00,65.1,61.5,30.03,SE,135,0.0,0.0,88,0.00,,CLR,0.00,74.00,VWS V14.01,2013-02-06 04:10:00,
2013-02-05 23:15:00,65.0,61.4,30.02,SE,135,0.0,0.0,88,0.00,,CLR,0.00,74.00,VWS V14.01,2013-02-06 04:15:00,
2013-02-05 23:20:00,65.1,61.5,30.02,SE,135,0.0,0.0,88,0.00,,CLR,0.00,74.00,VWS V14.01,2013-02-06 04:20:00,
2013-02-05 23:25:00,65.0,61.4,30.02,SE,135,0.0,0.0,88,0.00,,CLR,0.00,74.00,VWS V14.01,2013-02-06 04:25:00,
2013-02-05 23:30:00,64.9,61.6,30.02,SE,135,0.0,0.0,89,0.00,,CLR,0.00,74.00,VWS V14.01,2013-02-06 04:30:00,
2013-02-05 23:35:00,65.0,61.7,30.02,SE,135,0.0,0.0,89,0.00,,CLR,0.00,74.00,VWS V14.01,2013-02-06 04:35:00,
2013-02-05 23:40:00,64.6,61.3,30.02,SE,135,0.0,0.0,89,0.00,,CLR,0.00,74.00,VWS V14.01,2013-02-06 04:40:00,
2013-02-05 23:45:00,64.8,61.8,30.02,SE,135,0.0,0.0,90,0.00,,CLR,0.00,74.00,VWS V14.01,2013-02-06 04:45:00,
2013-02-05 23:50:00,64.7,61.7,30.02,SE,135,0.0,0.0,90,0.00,,CLR,0.00,74.00,VWS V14.01,2013-02-06 04:50:00,
2013-02-05 23:55:00,64.0,61.0,30.02,SE,135,0.0,0.0,90,0.00,,CLR,0.00,74.00,VWS V14.01,2013-02-06 04:55:00,